{"data":{"norad_id":59256,"epoch":"2026-05-25T03:10:04.406880Z","epoch_age_seconds":60293,"freshness":"FRESH","line1":"1 59256U 24050C   26145.13199545  .00000691  00000+0  35443-4 0  9991","line2":"2 59256  53.1602 185.8308 0001382  84.6126 275.5032 15.30198619122259","mean_motion":15.30198619,"eccentricity":0.0001382,"inclination_deg":53.1602,"raan_deg":185.8308,"arg_perigee_deg":84.6126,"mean_anomaly_deg":275.5032,"bstar":3.5443e-5,"rev_number":12225,"period_min":94.105430636257,"perigee_km":474.27205901365,"apogee_km":476.16632666535,"semimajor_km":6853.3561928395,"source":"CELESTRAK","updated_at":"2026-05-25T13:38:18.874374Z"}}